星链-35966(STARLINK-35966)

导读

STARLINK-35966是美国发射的星链卫星,于2025年12月31日发射升空,归属SpaceX星链低轨互联网星座项目。星链星座旨在为全球提供覆盖偏远地区的高速宽带网络服务,该卫星是星链星座部署计划中的一员,承担星座通信组网环节,助力星链完成全球覆盖的构建目标。

Basic Information
目录编号:
66821
目录名称:
STARLINK-35966
国际标识:
2025-280A
轨道中心:
EARTH
卫星名称:
星链-35966
卫星全名:
星链-35966(STARLINK-35966)
卫星状态:
在轨 (已飞行193 天)
发射日期:
2025-12-02 UTC
国别 :
美国 (US)
星等 :
--
Orbit Information
数据来源 国际轨道数据 AOE轨道数据
星历时间 2026-06-13T04:08:11+0800
13小时前
查看轨道信息
2026-06-12T03:00:00+0800
1天前
查看轨道信息
半长轴 6950.037km 6950.176km
偏心率 0.0003178 0.000301
轨道倾角 70.002° 70.001°
近地点辐角 268.356° 268.755°
升交点赤经 94.746° 97.385°
平近点角 91.723° 203.372°
近地点 569.691km 569.946km
远地点 574.109km 574.132km
周期 96.104分钟 96.107分钟
每日圈数 14.983805 14.983357
Detailed Information
固有亮度:
5
最大亮度:
2.5
卫星平台:
Starlink V1.0
覆盖范围:
全球
运营商:
太空探索技术公司
运营商所在国:
美国
制造商(研发单位):
太空探索技术公司
制造商所在国:
美国
使用方式:
暂无
Satellite Introduction
Starlink 计划是 SpaceX 推出的全球卫星互联网项目,通过发射低轨道卫星,为全球尤其是偏远地区提供高速、低延迟的互联网服务。自 2019 年起,Starlink 已部署数千颗卫星,旨在缩小全球数字鸿沟,推动互联网普及。该项目还为军事、航空等行业提供通信支持,带来广泛经济效益。
2D Orbit Map
3D Orbit Map
Orbit Altitude Analysis Chart
Orbit Inclination Analysis Chart
Orbit Comprehensive Analysis Chart
View Comprehensive Chart